Flag for Austria Weather past 2 weeks in Scheibbs, Lower Austria, Austria

Now
32 °F

Chilly.


Feels Like: 32 °F
Forecast: 27 / 34 °F
Wind: 1 mph from Northwest

Location: Amstetten

Current Time: Feb 1, 2015 at 8:57:12 PM

Latest Report: Feb 1, 2015 at 8:00 PM


Visibility: N/A

Pressure: 29.41 "Hg

Humidity: 87%

Dew point: 29 °F

Location of ScheibbsLocation

Historic Weather in Scheibbs — Graph

°F

Scheibbs temperature yesterday

Maximum temperature yesterday: 41 °F (at 3:00 PM)
Minimum temperature yesterday: 27 °F (at 11:00 PM)
Average temperature yesterday: 33 °F

Past Weeks' High & Low Weather Summary

 TemperatureHumidityPressure
High45 °F (Jan 22, 3:00 PM)100% (Jan 27, 7:00 AM)30.37 "Hg (Jan 27, 7:00 AM)
Low24 °F (Feb 1, 4:00 AM)57% (Jan 31, 3:00 PM)28.79 "Hg (Jan 30, 5:00 AM)
Average35 °F88%29.84 "Hg
* Reported Jan 17 7:00 PM — Feb 1 7:00 PM, Scheibbs, Weather by CustomWeather, © 2014

Note: Actual official high and low records may vary slightly from our data, if they occured in-between our weather recording intervals... More about our weather records

Advertising

Scheibbs weather history for previous 24 hours

 ConditionsComfort  
Time TempWeatherWind HumidityBarometerVisibility
7:00 PM
Feb 1
32 °FChilly.1 mph86%29.41 "HgN/A
6:00 PM33 °FChilly.1 mph80%29.38 "HgN/A
5:00 PM34 °FChilly.1 mph77%29.35 "HgN/A
4:00 PM35 °FChilly.1 mph76%29.35 "HgN/A
3:00 PM37 °FChilly.2 mph66%29.32 "HgN/A
2:00 PM37 °FChilly.1 mph68%29.32 "HgN/A
1:00 PM36 °FChilly.1 mph69%29.32 "HgN/A
12:00 PM34 °FChilly.1 mph76%29.32 "HgN/A
11:00 AM30 °FChilly.1 mph86%29.35 "HgN/A
10:00 AM29 °FChilly.1 mph90%29.32 "HgN/A
9:00 AM27 °FChilly.1 mph94%29.32 "HgN/A
8:00 AM25 °FCold.1 mph96%29.32 "HgN/A
7:00 AM25 °FChilly.No wind96%29.29 "HgN/A
6:00 AM26 °FChilly.1 mph95%29.29 "HgN/A
5:00 AM25 °FChilly.1 mph94%29.29 "HgN/A
4:00 AM24 °FCold.1 mph96%29.29 "HgN/A
3:00 AM25 °FChilly.2 mph96%29.26 "HgN/A
2:00 AM24 °FCold.1 mph96%29.26 "HgN/A
1:00 AM25 °FChilly.1 mph96%29.26 "HgN/A
12:00 AM25 °FChilly.1 mph95%29.26 "HgN/A
11:00 PM
Jan 31
27 °FChilly.No wind96%29.23 "HgN/A
10:00 PM27 °FChilly.1 mph95%29.23 "HgN/A
9:00 PM28 °FChilly.1 mph95%29.23 "HgN/A
8:00 PM29 °FChilly.1 mph92%29.21 "HgN/A
Weather by CustomWeather, © 2014

See weather overviewHow to use our weather pages